Find Kosmos-1844

NORAD ID: 17973 Int'l Des: 1987-041 Owner: GRU Country: SU operational
LEOCIRCULAR

当前视图

正在加载3D地球...

关于 Kosmos-1844

正在加载描述...

即将过境

Passes for default location (London). Set your location on the main map for personalized predictions.

高度历史

Loading altitude history...

两行轨道根数

1 17973U 87041A 26149.50939594 .00000114 00000-0 84386-4 0 9992
2 17973 70.8999 223.7030 0033262 261.9783 97.7564 14.14569141 15011
Epoch: May 29, 2026 • Age: 15 hours

当前状态

高度 868.7 km
速度 7.41 km/s
星下点 41.93°N, 62.98°W
发射日期 May 13, 1987
运行时间 39 years
类型 other

技术详情

分类 Payload
质量 3250.00 kg
干质量 3250.00 kg
总质量 3250.00 kg
长度 4.50 m
直径 1.40 m
跨度 22.70 m
形状 Cyl + 2 Pan + Ant
制造商 YUZH
平台类型 Tselina-2
阶段状态 In Orbit
所有者/国家 GRU/SU

Most Searched